TimeEDT,TemperatureF,Dew PointF,Humidity,Sea Level PressureIn,VisibilityMPH,Wind Direction,Wind SpeedMPH,Gust SpeedMPH,PrecipitationIn,Events,Conditions,WindDirDegrees,DateUTC
12:31 AM,35.6,33.8,93,30.33,10.0,Calm,Calm,-,N/A,,Partly Cloudy,0,2012-10-09 04:31:00
12:47 AM,35.6,33.8,93,30.33,4.0,Calm,Calm,-,N/A,,Mostly Cloudy,0,2012-10-09 04:47:00
12:49 AM,35.6,33.8,93,30.33,1.5,Calm,Calm,-,N/A,,Mostly Cloudy,0,2012-10-09 04:49:00
12:51 AM,35.1,34.0,96,30.36,0.8,Calm,Calm,-,N/A,,Mist,0,2012-10-09 04:51:00
1:08 AM,33.8,33.8,100,30.33,1.2,Calm,Calm,-,N/A,,Mostly Cloudy,0,2012-10-09 05:08:00
1:10 AM,33.8,33.8,100,30.33,2.5,Calm,Calm,-,N/A,,Mostly Cloudy,0,2012-10-09 05:10:00
1:13 AM,33.8,33.8,100,30.33,6.0,Calm,Calm,-,N/A,,Scattered Clouds,0,2012-10-09 05:13:00
1:23 AM,33.8,33.8,100,30.32,1.2,Calm,Calm,-,N/A,,Mostly Cloudy,0,2012-10-09 05:23:00
1:25 AM,33.8,33.8,100,30.32,0.8,Calm,Calm,-,N/A,,Mist,0,2012-10-09 05:25:00
1:51 AM,34.0,34.0,100,30.37,0.2,Calm,Calm,-,N/A,Fog,Fog,0,2012-10-09 05:51:00
2:51 AM,33.1,33.1,100,30.36,0.2,Calm,Calm,-,N/A,Fog,Fog,0,2012-10-09 06:51:00
4:36 AM,33.8,33.8,100,30.33,1.2,Calm,Calm,-,N/A,,Overcast,0,2012-10-09 08:36:00
4:38 AM,33.8,33.8,100,30.33,2.0,Calm,Calm,-,N/A,,Overcast,0,2012-10-09 08:38:00
4:44 AM,33.8,33.8,100,30.33,1.0,Calm,Calm,-,N/A,,Mist,0,2012-10-09 08:44:00
4:51 AM,34.0,34.0,100,30.37,0.2,Calm,Calm,-,N/A,Fog,Fog,0,2012-10-09 08:51:00
5:42 AM,33.8,33.8,100,30.33,1.5,Calm,Calm,-,N/A,,Overcast,0,2012-10-09 09:42:00
5:51 AM,33.1,33.1,100,30.37,2.0,Calm,Calm,-,N/A,,Overcast,0,2012-10-09 09:51:00
6:08 AM,33.8,33.8,100,30.33,1.2,Calm,Calm,-,N/A,,Overcast,0,2012-10-09 10:08:00
6:11 AM,33.8,33.8,100,30.33,0.8,Calm,Calm,-,N/A,,Overcast,0,2012-10-09 10:11:00
6:51 AM,33.1,33.1,100,30.37,0.2,Calm,Calm,-,N/A,Fog,Fog,0,2012-10-09 10:51:00
7:51 AM,33.8,33.8,100,30.34,0.2,Calm,Calm,-,N/A,Fog,Fog,0,2012-10-09 11:51:00
8:51 AM,36.0,36.0,100,30.37,0.2,ESE,3.5,-,N/A,Fog,Fog,110,2012-10-09 12:51:00
9:07 AM,37.4,37.4,100,30.33,1.2,Calm,Calm,-,N/A,,Overcast,0,2012-10-09 13:07:00
9:14 AM,37.4,37.4,100,30.33,1.5,Calm,Calm,-,N/A,,Overcast,0,2012-10-09 13:14:00
9:22 AM,37.4,37.4,100,30.33,3.0,Calm,Calm,-,N/A,,Overcast,0,2012-10-09 13:22:00
9:51 AM,37.4,37.4,100,30.33,10.0,Calm,Calm,-,N/A,,Overcast,0,2012-10-09 13:51:00
10:51 AM,42.1,41.0,96,30.36,10.0,Calm,Calm,-,N/A,,Overcast,0,2012-10-09 14:51:00
11:51 AM,45.0,41.0,86,30.35,10.0,Calm,Calm,-,N/A,,Overcast,0,2012-10-09 15:51:00
12:51 PM,48.9,43.0,80,30.32,10.0,NNE,3.5,-,N/A,,Overcast,20,2012-10-09 16:51:00
1:06 PM,48.2,42.8,82,30.27,10.0,Calm,Calm,-,N/A,,Overcast,0,2012-10-09 17:06:00
1:51 PM,52.0,42.1,69,30.27,10.0,SSE,6.9,-,N/A,,Overcast,160,2012-10-09 17:51:00
2:51 PM,52.0,41.0,66,30.26,10.0,South,11.5,-,N/A,,Overcast,170,2012-10-09 18:51:00
3:51 PM,53.1,42.1,66,30.25,10.0,SSE,10.4,-,N/A,,Overcast,150,2012-10-09 19:51:00
4:51 PM,52.0,42.1,69,30.24,10.0,South,6.9,-,N/A,,Overcast,170,2012-10-09 20:51:00
5:51 PM,51.8,42.8,71,30.20,10.0,South,5.8,-,N/A,,Overcast,170,2012-10-09 21:51:00
6:51 PM,48.9,42.1,77,30.23,10.0,South,5.8,-,N/A,,Overcast,180,2012-10-09 22:51:00
7:51 PM,48.0,43.0,83,30.22,10.0,South,3.5,-,N/A,,Overcast,170,2012-10-09 23:51:00
8:27 PM,46.4,42.8,87,30.19,10.0,SSE,5.8,-,N/A,,Overcast,160,2012-10-10 00:27:00
8:51 PM,46.9,42.1,83,30.22,10.0,South,3.5,-,N/A,,Mostly Cloudy,180,2012-10-10 00:51:00
9:26 PM,46.4,42.8,87,30.18,10.0,South,4.6,-,N/A,,Mostly Cloudy,170,2012-10-10 01:26:00
9:51 PM,48.0,43.0,83,30.20,10.0,South,4.6,-,N/A,,Overcast,170,2012-10-10 01:51:00
10:51 PM,48.0,44.1,86,30.19,10.0,South,6.9,-,N/A,,Overcast,190,2012-10-10 02:51:00
11:33 PM,48.2,44.6,87,30.14,10.0,SSE,9.2,-,N/A,,Overcast,160,2012-10-10 03:33:00
11:51 PM,48.0,44.1,86,30.16,10.0,South,11.5,-,N/A,,Overcast,170,2012-10-10 03:51:00